HMU-SAT2

导读

HMU-SAT2(NORAD编号67687)是一颗由哈尔滨医科大学参与研发的微小卫星,作为高校主导的航天项目,其聚焦空间生命科学实验领域,开展微重力环境对生物组织、细胞分子影响的相关观测研究,推动航天医学领域的创新探索。该卫星目前稳定运行在近地轨道,具备低功耗小型化载荷设计,通过星地链路传输实验数据,为我国高校开展空间科学自主研究提供了实践平台,也为后续医工交叉航天任务积累了技术经验。

基本信息
目录编号:
67687
目录名称:
LEOPARD
国际标识:
1998-067YD
轨道中心:
EARTH
卫星名称:
HMU-SAT2
卫星全名:
HMU-SAT2
卫星状态:
在轨 (已飞行10151 天)
发射日期:
1998-11-20 UTC
国别 :
日本 (JP)
星等 :
--
轨道信息
数据来源 国际轨道数据
星历时间: 2026-09-05T13:30:41+0800
6小时前
查看轨道信息
半长轴: 6732.996km
偏心率: 0.0007996
轨道倾角: 51.624°
近地点辐角 88.191°
升交点赤经 248.040°
平近点角 272.001°
近地点: 349.475km
远地点: 360.243km
周期: 91.637分钟
每日圈数: 15.714129
详细信息
使用方式:
暂无
2D轨道图
3D轨道图
轨道高度分析图
轨道倾角分析图
轨道综合分析图
查看轨道综合分析图
交会数据列表
事件ID 空间交会对象 最接近时刻(TCA) 交会距离 交会风险概率(CRP) 交会风险指数(CRI) 操作
CDM_260907-150606-169606-768721
LEOPARD (67687)
2026-09-07T
15:06:15+0000
1.521 km
极远距离
2.179541E-6 低风险 0.42
CDM_260906-103706-326506-768721
LEOPARD (67687)
2026-09-06T
10:37:18+0000
2.548 km
极远距离
1.396704E-6 低风险 0.38
CDM_260905-205506-259006-768721
LEOPARD (67687)
2026-09-05T
20:55:10+0000
2.801 km
极远距离
1.172678E-6 低风险 0.36